Retour au catalogue

BRO-20

ActifScienceSSO
NORAD 66674·PAYLOAD·🇫🇷 France

Lancé Nov 28, 2025 depuis Vandenberg Space Force Base

Loading…

Prochains Passages (prochaines 24 heures)

TLE

FraisSource: Space-Track

Époque: Sep 13, 2026, 22:18 UTC

1 66674U 25276J   26256.92978182  .00002236  00000-0  11121-3 0  9990
2 66674  97.4096 328.2899 0007640  62.7526 297.4486 15.18623505 43869

Suivez BRO-20 en temps réel avec AllMySat

Download on the App Store